User: anonymous   Login
Location: Unspecified
(0.0000°N, 0.0000°E)
Time: 00:02:02
(UTC+02:00)
Language:

Transit 2A - Orbit

View from above orbital plane
View from above orbital plane
View from above satellite
View from above satellite

Ground track
Ground track

The orbit data is extracted from the following two-line orbital elements,

1    45U 60007A   16147.94857208 -.00000052 +00000-0 +14154-4 0  9991
2    45 066.6946 327.1971 0261525 313.5119 044.4506 14.33488499853374
Epoch (UTC): 26 May 2016 22:45:56
Eccentricity: 0.0261525
inclination: 66.6946°
perigee height: 593 km
apogee height: 967 km
right ascension of ascending node: 327.1971°
argument of perigee: 313.5119°
revolutions per day: 14.33488499
mean anomaly at epoch: 44.4506°
orbit number at epoch: 85337

The dashed part of the orbit path shows where the satellite is in the earth's shadow,  

DLR